Terminal Aerodrome Forecast
Issued by NWS

Home | Current Version | Previous Version | Text Only | Print | Product List | Glossary On
Versions: 1 2 3 4 5 6 7 8 9 10 11 12 13 14 15 16 17 18 19 20 21 22
000
FTUS44 KMAF 271300 AAB
TAFINK
TAF AMD
KINK 271327Z 2713/2812 07010KT P6SM OVC020
      TEMPO 2713/2717 3SM BR BKN006 OVC012
     FM271700 08012KT P6SM OVC015=

USA.gov is the U.S. government's official web portal to all federal, state and local government web resources and services.